STARLINK-30236, 57300

Orbit data source: Space-Track

STARLINK-30236, 57300 is a payload satellite owned by SpaceX/Seattle (US) in LEO that was launched on Mon, 10 Jul 2023 UTC via an FALCON 9 launch vehicle from the Air Force Eastern Test Range (AFETR). Payload-class satellites include a variety of spacecraft equipped with specific instruments for various scientific and technological missions. These include communications satellites like Starlink; space stations such as the ISS; scientific satellites like the Hubble; Earth observation satellites from companies like Planet Labs, Umbra, and HawkEye 360; GPS; miniature CubeSats for education and research; and military/defense satellites.

Loading next visibility...
Identifier
57300, 2023-096L
Orbit
LEO
Country
Flag of USUS
Related business
Manufacturer
SpaceX/Seattle
Mission
Operational Commercial Communications
Bus & Motor
STARLINK V2M, Unknown motor
Mass
730 kg wet, ~700 kg dry
Launch date (UTC)
2023-07-10 (2 years ago)
Launch vehicle
FALCON 9
Launch site
Air Force Eastern Test Range (AFETR)
Object type
Payload
Rocket body
Debris
Shape & HBR
Box + 2 Pan, 17.7 m
Radar Cross Section
33.884 m², Large (>1 m²)

Expand to show TLE details & history
Last TLE update: 22 hours ago

TLE from 22 hours ago
0 STARLINK-30236
1 57300U 23096L   25340.79815275  .00001142  00000-0  99579-4 0  9994
2 57300  43.0051   7.9448 0001081 269.2985  90.7734 15.02535140133680
Epoch: 2025-12-06T19:09Z
TLE epoch observation values (Epoch: 2025-12-06T19:09:20.397Z)
Latitude
0.00001°
Longitude
4.7891°
Altitude
558.871 km
Speed
7.584 km/s
True Right ascension
00h 31m 46s
True Declination
0° 00' 00"
Sunlit
Object was in daylight at epoch
Visualization orbit readout
Latitude
Unknown
Longitude
Unknown
Altitude
Unknown
Speed
Unknown
Apparent Right ascension
Unknown
Apparent Declination
Unknown
Sunlit
N/A
Visualization observer readout
Local Sidereal Time
15:16:35
Azimuth
Unknown
Elevation
Unknown
Doppler factor
Unknown
Orbital elements
Apogee altitude
561.755 km
Perigee altitude
560.255 km
Semi-major axis
6,939.142 km
Eccentricity
0.00011
Inclination
43.0051°
RAAN
7.9448°
Arg. of periapsis
269.2985°
True anomaly
90.78579°
Mean anomaly
90.7734°
Eccentric anomaly
90.77959°
Mean motion
3.75478 °/min
Orbital period
95.88 mins
BSTAR
0.000099579
Loading maneuver chart data...
Computing Atmospheric mass density...
Loading historical data...
Loading historical data...
Loading historical data...
Loading historical data...
Loading historical data...
Loading historical data...
Loading historical data...

Documentation

Showing up to 5 results
|